Retour au catalogue

SDO

ActifScienceGEO
NORAD 36395·PAYLOAD·🇺🇸 United States

Lancé Feb 11, 2010 depuis Cape Canaveral Space Force Station

Loading…

TLE

FraisSource: Space-Track

Époque: Sep 14, 2026, 11:52 UTC

1 36395U 10005A   26257.49503465 -.00000071  00000-0  00000-0 0  9999
2 36395  34.8356  84.9826 0001618  74.0463 271.0397  1.00275054 60957

Suivez SDO en temps réel avec AllMySat

Download on the App Store